N0OQA Weather Reports


Display with metric or nautical units.
time (UTC)temp
F
wind
direction
speed
MPH
gust
MPH
rain 1hr
in
rain 24hr
in
rain mn
in
humidity
%
barometer
mb
20221206104942 13 6 6.0 8.0 0.00 0.00 0.00 87 1019.8
20221206104440 13 42 5.0 6.0 0.00 0.00 0.00 87 1019.5
20221206103939 13 56 4.0 6.0 0.00 0.00 0.00 87 1019.4
20221206103600 13 8 5.0 6.0 0.00 0.00 0.00 87 1019.5
20221206103524 13 8 5.0 6.0 0.00 0.00 0.00 87 1019.5
20221206103440 13 8 5.0 6.0 0.00 0.00 0.00 87 1019.5
20221206102628 13 56 4.0 7.0 0.00 0.00 0.00 88 1019.8
20221206102438 13 56 4.0 7.0 0.00 0.00 0.00 88 1019.8
20221206101751 13 52 6.0 8.0 0.00 0.00 0.00 88 1019.5
20221206101438 13 52 6.0 8.0 0.00 0.00 0.00 88 1019.5
20221206100937 13 38 6.0 9.0 0.00 0.00 0.00 89 1019.2
20221206095937 12 32 6.0 8.0 0.00 0.00 0.00 90 1019.4
20221206094937 12 0 0.0 0.0 0.00 0.00 0.00 90 1019.9
20221206094434 11 0 0.0 0.0 0.00 0.00 0.00 90 1020.0
20221206093435 11 0 0.0 0.0 0.00 0.00 0.00 89 1020.5
20221206092934 12 0 0.0 0.0 0.00 0.00 0.00 89 1020.5
20221206091933 12 345 3.0 4.0 0.00 0.00 0.00 89 1019.3
20221206090932 13 14 1.0 2.0 0.00 0.00 0.00 88 1020.2
20221206090432 13 15 4.0 5.0 0.00 0.00 0.00 89 1020.0
20221206084931 12 8 1.0 3.0 0.00 0.00 0.00 89 1019.7
20221206084430 12 0 0.0 0.0 0.00 0.00 0.00 90 1019.9
20221206083928 12 0 0.0 0.0 0.00 0.00 0.00 90 1020.0
20221206083428 12 0 0.0 0.0 0.00 0.00 0.00 90 1020.1
20221206082427 12 0 0.0 0.0 0.00 0.00 0.00 90 1020.2
20221206081927 12 0 0.0 0.0 0.00 0.00 0.00 90 1020.0
20221206080926 12 0 0.0 0.0 0.00 0.00 0.00 89 1020.4
20221206080426 12 0 0.0 0.0 0.00 0.00 0.00 89 1020.5
20221206075925 12 0 0.0 0.0 0.00 0.00 0.00 89 1020.6
20221206075425 12 0 0.0 0.0 0.00 0.00 0.00 87 1020.4
20221206074924 12 0 0.0 0.0 0.00 0.00 0.00 86 1020.2
20221206073924 13 0 0.0 0.0 0.00 0.00 0.00 85 1019.9
20221206072923 14 0 0.0 0.0 0.00 0.00 0.00 85 1019.8
20221206072423 14 0 0.0 0.0 0.00 0.00 0.00 85 1019.9
20221206071923 14 0 0.0 0.0 0.00 0.00 0.00 84 1018.7
20221206071422 14 0 0.0 0.0 0.00 0.00 0.00 84 1019.8
20221206070920 15 0 0.0 0.0 0.00 0.00 0.00 84 1019.8
20221206070421 15 0 0.0 0.0 0.00 0.00 0.00 83 1019.9
20221206065416 15 0 0.0 0.0 0.00 0.00 0.00 83 1020.0
20221206064915 15 0 0.0 0.0 0.00 0.00 0.00 83 1020.1
20221206064415 15 359 1.0 4.0 0.00 0.00 0.00 83 1020.1
20221206063914 15 0 0.0 0.0 0.00 0.00 0.00 83 1020.0
20221206063415 15 0 0.0 0.0 0.00 0.00 0.00 83 1020.0
20221206062913 15 0 0.0 0.0 0.00 0.00 0.00 83 1020.0
20221206062413 15 322 3.0 4.0 0.00 0.00 0.00 83 1019.9
20221206061912 15 352 5.0 7.0 0.00 0.00 0.00 83 1018.9
20221206061412 15 27 1.0 3.0 0.00 0.00 0.00 83 1019.6
20221206060912 15 15 4.0 6.0 0.00 0.00 0.00 83 1019.5
20221206060411 15 0 0.0 0.0 0.00 0.00 0.00 83 1019.6
20221206055911 15 0 0.0 0.0 0.00 0.00 0.00 83 1019.5
20221206055413 15 0 0.0 0.0 0.00 0.00 0.00 82 1019.4
20221206055045 15 0 0.0 0.0 0.00 0.00 0.00 82 1019.4
20221206055000 15 0 0.0 0.0 0.00 0.00 0.00 82 1019.4
20221206054911 15 0 0.0 0.0 0.00 0.00 0.00 82 1019.4
20221206054410 15 15 4.0 5.0 0.00 0.00 0.00 82 1019.4
20221206053909 15 13 6.0 7.0 0.00 0.00 0.00 82 1019.4
20221206053409 15 10 5.0 7.0 0.00 0.00 0.00 82 1019.4
20221206052908 15 11 5.0 7.0 0.00 0.00 0.00 82 1019.5
20221206052410 15 3 5.0 7.0 0.00 0.00 0.00 82 1019.4
20221206051908 15 347 4.0 6.0 0.00 0.00 0.00 82 1017.9
20221206051407 15 336 7.0 10.0 0.00 0.00 0.00 82 1019.5
20221206050907 15 23 7.0 10.0 0.00 0.00 0.00 82 1019.4
20221206050409 15 335 6.0 8.0 0.00 0.00 0.00 82 1019.6
20221206045907 15 321 7.0 9.0 0.00 0.00 0.00 82 1019.5
20221206045406 16 318 7.0 11.0 0.00 0.00 0.00 82 1019.4
20221206044904 16 330 6.0 8.0 0.00 0.00 0.00 81 1019.5
20221206043903 16 6 6.0 8.0 0.00 0.00 0.00 81 1019.2
20221206043402 16 321 6.0 8.0 0.00 0.00 0.00 81 1019.1
20221206042902 16 326 7.0 9.0 0.00 0.00 0.00 81 1018.9
20221206042402 16 3 7.0 8.0 0.00 0.00 0.00 80 1018.8
20221206041900 16 332 6.0 8.0 0.00 0.00 0.00 79 1017.4
20221206041400 16 319 6.0 7.0 0.00 0.00 0.00 80 1018.9
20221206040900 16 329 7.0 9.0 0.00 0.00 0.00 80 1019.1
20221206040400 16 318 7.0 9.0 0.00 0.00 0.00 80 1019.2
20221206035859 16 309 6.0 8.0 0.00 0.00 0.00 80 1019.2
20221206035359 16 322 4.0 6.0 0.00 0.00 0.00 79 1019.2
20221206034358 16 318 7.0 10.0 0.00 0.00 0.00 79 1019.1
20221206033858 17 338 6.0 9.0 0.00 0.00 0.00 78 1019.2
20221206033358 17 328 6.0 7.0 0.00 0.00 0.00 78 1019.2
20221206032858 17 332 6.0 8.0 0.00 0.00 0.00 78 1019.1
20221206032357 17 319 7.0 8.0 0.00 0.00 0.00 78 1018.9
20221206031857 17 316 7.0 10.0 0.00 0.00 0.00 77 1017.1
20221206031356 17 319 6.0 9.0 0.00 0.00 0.00 77 1018.8
20221206030857 17 321 8.0 11.0 0.00 0.00 0.00 77 1018.8
20221206030355 17 332 5.0 9.0 0.00 0.00 0.00 77 1018.6
20221206025852 17 307 6.0 8.0 0.00 0.00 0.00 76 1018.7
20221206025353 17 322 4.0 6.0 0.00 0.00 0.00 76 1018.5
20221206024850 17 315 6.0 9.0 0.00 0.00 0.00 76 1018.5
20221206024350 17 284 4.0 5.0 0.00 0.00 0.00 75 1018.6
20221206023849 18 330 6.0 8.0 0.00 0.00 0.00 75 1018.5
20221206023349 18 329 6.0 10.0 0.00 0.00 0.00 75 1018.4
20221206022848 18 330 6.0 9.0 0.00 0.00 0.00 74 1018.5
20221206022348 18 321 9.0 12.0 0.00 0.00 0.00 74 1018.6
20221206020347 19 329 9.0 11.0 0.00 0.00 0.00 71 1018.5
20221206015846 19 314 8.0 12.0 0.00 0.00 0.00 70 1018.2
20221206014845 20 300 8.0 11.0 0.00 0.00 0.00 69 1018.0
20221206014346 20 304 7.0 10.0 0.00 0.00 0.00 68 1017.9
20221206013845 20 329 10.0 15.0 0.00 0.00 0.00 67 1017.9
20221206013347 21 307 9.0 11.0 0.00 0.00 0.00 67 1018.0
20221206012844 21 297 7.0 9.0 0.00 0.00 0.00 67 1018.0
20221206012344 21 333 9.0 12.0 0.00 0.00 0.00 66 1018.0
20221206011845 21 323 7.0 11.0 0.00 0.00 0.00 63 1017.3
20221206010843 22 1 7.0 10.0 0.00 0.00 0.00 65 1017.9
20221206010343 22 321 11.0 16.0 0.00 0.00 0.00 65 1018.0
20221206005841 22 315 10.0 16.0 0.00 0.00 0.00 65 1017.9
20221206005341 22 293 10.0 12.0 0.00 0.00 0.00 64 1017.9
20221206004841 22 302 12.0 16.0 0.00 0.00 0.00 63 1017.9
20221206004341 22 315 10.0 15.0 0.00 0.00 0.00 63 1018.0
20221206003840 22 281 9.0 15.0 0.00 0.00 0.00 63 1017.8
20221206003340 22 290 9.0 12.0 0.00 0.00 0.00 62 1017.8
20221206002840 23 314 8.0 12.0 0.00 0.00 0.00 62 1017.7
20221206002340 23 302 8.0 12.0 0.00 0.00 0.00 61 1017.6
20221206001340 23 323 9.0 13.0 0.00 0.00 0.00 61 1017.5
20221206000839 23 302 9.0 12.0 0.00 0.00 0.00 60 1017.4
20221205235838 23 304 12.0 16.0 0.00 0.00 0.00 60 1017.4
20221205234837 24 314 13.0 17.0 0.00 0.00 0.00 60 1017.4
20221205233836 24 291 12.0 16.0 0.00 0.00 0.00 60 1017.3
20221205232335 24 312 11.0 18.0 0.00 0.00 0.00 61 1017.1
20221205231834 24 316 9.0 14.0 0.00 0.00 0.00 59 1014.1
20221205231334 25 281 12.0 17.0 0.00 0.00 0.00 61 1017.0
20221205230834 25 301 12.0 17.0 0.00 0.00 0.00 60 1016.9
20221205230334 25 319 15.0 26.0 0.00 0.00 0.00 60 1016.9
20221205225834 25 288 13.0 17.0 0.00 0.00 0.00 63 1016.9
20221205224832 25 312 9.0 12.0 0.00 0.00 0.00 70 1016.5
20221205224331 25 308 7.0 10.0 0.00 0.00 0.00 71 1016.5
20221205223831 25 260 8.0 10.0 0.00 0.00 0.00 71 1016.4
20221205223331 25 326 7.0 8.0 0.00 0.00 0.00 71 1016.1
20221205222831 25 300 10.0 15.0 0.00 0.00 0.00 70 1016.0
20221205221830 25 271 7.0 9.0 0.00 0.00 0.00 70 1015.4
20221205221330 25 298 9.0 12.0 0.00 0.00 0.00 72 1015.9
20221205220829 25 294 10.0 14.0 0.00 0.00 0.00 72 1015.9
20221205220329 25 278 11.0 15.0 0.00 0.00 0.00 73 1016.0
20221205215829 25 291 11.0 15.0 0.00 0.00 0.00 73 1016.0
20221205214828 26 302 10.0 14.0 0.00 0.00 0.00 72 1015.9
20221205214328 26 333 14.0 22.0 0.00 0.00 0.00 72 1015.7
20221205213827 26 290 12.0 21.0 0.00 0.00 0.00 71 1015.6
20221205213326 26 277 13.0 17.0 0.00 0.00 0.00 69 1015.6
20221205212826 26 294 12.0 19.0 0.00 0.00 0.00 68 1015.4
20221205212323 26 315 11.0 17.0 0.00 0.00 0.00 68 1015.3
20221205211823 26 311 10.0 14.0 0.00 0.00 0.00 68 1014.7
20221205211323 27 285 11.0 17.0 0.00 0.00 0.00 67 1015.0
20221205210822 27 298 11.0 15.0 0.00 0.00 0.00 65 1014.9
20221205210322 27 322 10.0 13.0 0.00 0.00 0.00 65 1014.9
20221205205822 27 276 11.0 16.0 0.00 0.00 0.00 64 1014.9
20221205205321 27 352 14.0 20.0 0.00 0.00 0.00 64 1014.8
20221205203821 27 291 14.0 22.0 0.00 0.00 0.00 63 1014.6
20221205203320 27 288 12.0 14.0 0.00 0.00 0.00 64 1014.6
20221205202820 27 267 12.0 16.0 0.00 0.00 0.00 64 1014.6
20221205202320 27 316 10.0 14.0 0.00 0.00 0.00 64 1014.6
20221205201819 27 311 13.0 18.0 0.00 0.00 0.00 64 1013.1
20221205201319 28 298 12.0 18.0 0.00 0.00 0.00 64 1014.7
20221205200819 28 290 13.0 18.0 0.00 0.00 0.00 64 1014.6
20221205200318 28 278 13.0 17.0 0.00 0.00 0.00 64 1014.4
20221205195819 28 301 10.0 15.0 0.00 0.00 0.00 65 1014.3
20221205195318 28 315 11.0 17.0 0.00 0.00 0.00 65 1014.1
20221205194316 28 309 13.0 18.0 0.00 0.00 0.00 65 1013.9
20221205193815 28 307 9.0 14.0 0.00 0.00 0.00 65 1014.1
20221205191814 29 293 10.0 12.0 0.00 0.00 0.00 65 1013.1
20221205190813 28 322 11.0 15.0 0.00 0.00 0.00 66 1014.0
20221205190313 28 316 11.0 15.0 0.00 0.00 0.00 66 1014.0
20221205185812 28 318 10.0 14.0 0.00 0.00 0.00 67 1014.0
20221205184811 28 300 11.0 14.0 0.00 0.00 0.00 67 1013.9
20221205184311 28 322 10.0 13.0 0.00 0.00 0.00 68 1013.9
20221205183812 28 266 7.0 10.0 0.00 0.00 0.00 69 1013.8
20221205183311 28 283 9.0 12.0 0.00 0.00 0.00 70 1013.7
20221205182811 28 328 10.0 14.0 0.00 0.00 0.00 71 1013.6
20221205182310 28 290 7.0 8.0 0.00 0.00 0.00 72 1013.4
20221205181809 28 316 10.0 12.0 0.00 0.00 0.00 72 1011.5
20221205180307 28 326 10.0 14.0 0.00 0.00 0.00 72 1013.3
20221205175807 28 326 9.0 12.0 0.00 0.00 0.00 72 1013.3
20221205175306 28 294 9.0 12.0 0.00 0.00 0.00 73 1013.3
20221205174306 28 302 10.0 14.0 0.00 0.00 0.00 73 1013.1
20221205173807 28 319 10.0 13.0 0.00 0.00 0.00 74 1013.2
20221205173305 28 290 11.0 13.0 0.00 0.00 0.00 74 1013.4
20221205172805 28 300 10.0 12.0 0.00 0.00 0.00 74 1013.4
20221205172306 28 291 11.0 14.0 0.00 0.00 0.00 74 1013.4
20221205171804 28 290 9.0 12.0 0.00 0.00 0.00 75 1013.3
20221205171303 28 319 8.0 11.0 0.00 0.00 0.00 77 1013.9
20221205170803 28 308 11.0 13.0 0.00 0.00 0.00 76 1013.9
20221205170301 28 297 10.0 13.0 0.00 0.00 0.00 77 1013.8
20221205165800 28 290 9.0 13.0 0.00 0.00 0.00 77 1013.8
20221205165259 28 277 11.0 13.0 0.00 0.00 0.00 77 1013.7
20221205164800 28 321 12.0 16.0 0.00 0.00 0.00 78 1013.8
20221205164258 28 318 10.0 15.0 0.00 0.00 0.00 77 1013.7
20221205163758 28 326 10.0 16.0 0.00 0.00 0.00 77 1013.7
20221205163258 27 309 9.0 11.0 0.00 0.00 0.00 79 1013.7
20221205162758 27 294 11.0 14.0 0.00 0.00 0.00 79 1013.8
20221205162257 27 285 12.0 16.0 0.00 0.00 0.00 79 1013.7
20221205161758 27 312 11.0 16.0 0.00 0.00 0.00 76 1012.8
20221205161257 27 287 10.0 14.0 0.00 0.00 0.00 80 1013.7
20221205160758 27 304 11.0 14.0 0.00 0.00 0.00 81 1013.7
20221205160256 27 281 10.0 13.0 0.00 0.00 0.00 80 1013.6
20221205155756 27 291 9.0 13.0 0.00 0.00 0.00 81 1013.6
20221205155256 27 294 8.0 10.0 0.00 0.00 0.00 81 1013.3
20221205154255 27 267 9.0 11.0 0.00 0.00 0.00 81 1013.4
20221205153756 27 300 10.0 13.0 0.00 0.00 0.00 81 1013.2
20221205153255 27 326 9.0 12.0 0.00 0.00 0.00 81 1013.0
20221205152754 27 309 6.0 9.0 0.00 0.00 0.00 81 1013.1
20221205152254 27 270 8.0 11.0 0.00 0.00 0.00 82 1012.9
20221205151754 27 295 8.0 10.0 0.00 0.00 0.00 82 1012.4
20221205151253 26 298 6.0 9.0 0.00 0.00 0.00 82 1012.8
20221205150754 26 295 7.0 9.0 0.00 0.00 0.00 82 1012.6
20221205150253 26 323 8.0 11.0 0.00 0.00 0.00 82 1012.6
20221205145752 26 274 6.0 6.0 0.00 0.00 0.00 83 1012.5
20221205145252 26 293 6.0 8.0 0.00 0.00 0.00 83 1012.3
20221205144913 26 300 7.0 9.0 0.00 0.00 0.00 83 1012.3
20221205144752 26 300 7.0 9.0 0.00 0.00 0.00 83 1012.3
20221205143751 26 271 7.0 10.0 0.00 0.00 0.00 83 1012.3
20221205143250 26 293 9.0 11.0 0.00 0.00 0.00 83 1012.2
20221205142750 26 295 8.0 10.0 0.00 0.00 0.00 83 1012.3
20221205142250 26 270 7.0 8.0 0.00 0.00 0.00 84 1012.4
20221205141749 26 271 6.0 8.0 0.00 0.00 0.00 83 1011.4
20221205141249 26 309 6.0 8.0 0.00 0.00 0.00 84 1012.3
20221205135747 26 291 5.0 6.0 0.00 0.00 0.00 83 1011.9
20221205134746 26 276 8.0 11.0 0.00 0.00 0.00 83 1011.4
20221205134246 26 302 6.0 8.0 0.00 0.00 0.00 83 1011.3
20221205133743 26 295 7.0 9.0 0.00 0.00 0.00 83 1011.3
20221205133243 26 315 7.0 9.0 0.00 0.00 0.00 83 1011.2
20221205132742 26 293 7.0 10.0 0.00 0.00 0.00 83 1011.0
20221205132242 26 328 6.0 9.0 0.00 0.00 0.00 83 1011.1
20221205131242 26 284 7.0 9.0 0.00 0.00 0.00 83 1010.9
20221205130741 26 294 6.0 7.0 0.00 0.00 0.00 83 1010.8
20221205130241 26 284 5.0 7.0 0.00 0.00 0.00 83 1010.9
20221205125741 26 315 6.0 7.0 0.00 0.00 0.00 83 1010.6
20221205125240 27 319 5.0 7.0 0.00 0.00 0.00 82 1010.6
20221205124740 27 323 7.0 9.0 0.00 0.00 0.00 82 1010.6
20221205124238 27 300 7.0 10.0 0.00 0.00 0.00 82 1010.4
20221205123738 27 307 8.0 12.0 0.00 0.00 0.00 82 1010.3
20221205123238 27 321 7.0 10.0 0.00 0.00 0.00 82 1010.2
20221205122737 27 307 8.0 12.0 0.00 0.00 0.00 82 1010.2
20221205122237 27 326 10.0 13.0 0.00 0.00 0.00 82 1010.1
20221205121236 27 288 10.0 14.0 0.00 0.00 0.00 82 1010.1
20221205120736 27 312 9.0 13.0 0.00 0.00 0.00 82 1010.0
20221205115236 27 293 10.0 12.0 0.00 0.00 0.00 82 1009.8
20221205114235 27 321 8.0 12.0 0.00 0.00 0.00 82 1009.7
20221205113735 27 315 8.0 11.0 0.00 0.00 0.00 82 1009.7
20221205113234 27 321 7.0 11.0 0.00 0.00 0.00 82 1009.7
20221205112734 27 340 8.0 11.0 0.00 0.00 0.00 82 1009.9
20221205112234 27 318 8.0 11.0 0.00 0.00 0.00 82 1009.8
20221205111233 27 311 6.0 9.0 0.00 0.00 0.00 82 1009.9
20221205110734 27 284 6.0 7.0 0.00 0.00 0.00 81 1010.0
20221205105733 27 316 5.0 8.0 0.00 0.00 0.00 81 1009.9